Location: Los Gatos B&B
(42.6926°N, 77.0646°W)
Time: 16:55:15
(UTC-04:00)

Cosmos 2263 Rocket - Visible Passes

Search period start: 27 March 2015 00:00
Search period end: 06 April 2015 00:00
Orbit: 824 x 849 km, 71.0° (Epoch: 26 March)

Date Brightness Start Highest point End Pass type
(mag) Time Alt. Az. Time Alt. Az. Time Alt. Az.
27 Mar 5.0 01:09:19 12° NNE 01:09:19 12° NNE 01:09:45 10° NNE visible
27 Mar 4.8 02:50:59 12° NNW 02:50:59 12° NNW 02:52:00 10° NNW visible
28 Mar 4.9 00:52:45 12° NNE 00:52:45 12° NNE 00:53:07 10° NNE visible
28 Mar 4.8 02:34:24 13° NNW 02:34:24 13° NNW 02:35:31 10° N visible
29 Mar 4.9 00:36:08 12° NNE 00:36:08 12° NNE 00:36:28 10° NNE visible
29 Mar 4.8 02:17:48 13° NNW 02:17:48 13° NNW 02:19:02 10° N visible
30 Mar 4.9 00:19:29 12° NNE 00:19:29 12° NNE 00:19:49 10° NNE visible
30 Mar 4.8 02:01:09 14° NNW 02:01:09 14° NNW 02:02:31 10° N visible
31 Mar 4.8 00:02:48 12° NNE 00:02:48 12° NNE 00:03:10 10° NNE visible
31 Mar 4.7 01:44:28 15° NNW 01:44:28 15° NNW 01:46:00 10° N visible
31 Mar 4.7 23:46:04 12° NNE 23:46:04 12° NNE 23:46:30 10° NNE visible
01 Apr 4.7 01:27:43 16° NNW 01:27:43 16° NNW 01:29:28 10° N visible
01 Apr 4.6 23:29:16 13° NNE 23:29:16 13° NNE 23:29:50 10° NNE visible
02 Apr 4.6 01:10:55 17° NNW 01:10:55 17° NNW 01:12:55 10° N visible
02 Apr 4.5 23:12:24 14° NNE 23:12:24 14° NNE 23:13:10 10° NNE visible
03 Apr 4.5 00:54:03 19° NNW 00:54:03 19° NNW 00:56:22 10° N visible
03 Apr 4.3 22:55:26 16° NE 22:55:26 16° NE 22:56:29 10° NNE visible
04 Apr 4.4 00:37:04 21° NNW 00:37:04 21° NNW 00:39:48 10° N visible
04 Apr 4.1 22:38:20 18° NE 22:38:20 18° NE 22:39:48 10° NE visible
05 Apr 4.2 00:19:58 23° NNW 00:19:58 23° NNW 00:23:14 10° N visible
05 Apr 3.8 22:21:05 22° NE 22:21:05 22° NE 22:23:07 10° NE visible
